Location: Mt. Graham
(32.7020°N, 109.8880°W)
Time: 13:17:48
(UTC-07:00)

Hubble Space Telescope - Visible Passes

Search period start: 22 November 2017 00:00
Search period end: 02 December 2017 00:00
Orbit: 537 x 541 km, 28.5° (Epoch: 22 November)

Date Brightness Start Highest point End Pass type
(mag) Time Alt. Az. Time Alt. Az. Time Alt. Az.
22 Nov 1.4 05:01:41 46° S 05:01:41 46° S 05:05:29 10° ESE visible
23 Nov 1.8 04:52:07 39° SSE 04:52:07 39° SSE 04:55:14 10° ESE visible
23 Nov 2.3 06:28:40 10° WSW 06:32:12 28° SSW 06:35:44 10° SE visible
24 Nov 2.4 04:42:32 30° SE 04:42:32 30° SE 04:44:58 10° ESE visible
24 Nov 2.5 06:18:36 10° WSW 06:21:55 24° SSW 06:25:14 10° SE visible
25 Nov 3.0 04:32:57 22° SE 04:32:57 22° SE 04:34:41 10° ESE visible
25 Nov 2.7 06:08:36 10° WSW 06:11:37 20° SSW 06:14:39 10° SSE visible
26 Nov 3.5 04:23:23 16° SE 04:23:23 16° SE 04:24:21 10° ESE visible
26 Nov 2.9 05:58:45 10° WSW 06:01:19 16° SSW 06:03:55 10° SSE visible
27 Nov 3.9 04:13:50 11° SE 04:13:50 11° SE 04:13:59 10° SE visible
27 Nov 3.0 05:49:12 10° SW 05:51:00 13° SSW 05:52:57 10° S visible
28 Nov 3.2 05:40:11 10° SSW 05:40:40 10° SSW 05:41:09 10° SSW visible
